Dewpoint
70 71 70 70 70 71 70 71 70 70 70 71 71 72 72 73 71 71 73 72 73 72 72 73 74 73 71 73 71 74 75 75 75 77 77 77 76 75 76 77 76 75 77 76 74 74 75 74 74 75 76 74 73 71 70 71 72 72 72 72 71 73 73 73 70 70 71 70 67 66 67 68 66 69 68 67 67 69 69 70 71 68 67 67 67
70 72 72 70 69 70 70 69 70 69 68 69 70 70 72 73 74 73 72 73 73 72 73 72 73 73 72 73 74 74 75 76 73 74 75 76 76 73 74 76 76 75 75 76 75 72 74 74 74 73 75 74 73 71 70 68 69 68 69 70 70 71 74 74 73 71 71 71 69 70 68 68 67 69 70 68 68 71 69 69 67 66 65 67 67
68 73 71 71 71 69 69 68 69 69 67 67 66 66 69 71 73 73 70 70 72 73 72 71 74 75 74 74 76 75 76 75 74 75 75 76 76 74 72 74 74 74 73 74 74 74 73 74 73 72 70 72 73 72 70 71 70 71 70 70 70 70 71 74 74 72 71 70 72 69 69 69 69 69 70 68 71 69 70 66 63 61 63 64 64
71 74 73 71 70 68 69 68 66 67 66 66 65 65 64 67 70 70 69 68 69 72 72 72 74 76 74 75 76 76 76 75 74 74 75 75 75 74 74 73 72 72 72 72 70 71 71 73 71 71 72 72 72 71 70 70 71 72 72 72 72 71 71 71 72 72 72 70 72 70 70 70 69 69 67 68 66 67 66 67 66 64 64 62 62
71 72 73 72 71 69 67 67 66 66 65 63 64 64 64 64 67 68 67 67 68 70 72 73 74 75 72 74 75 76 75 75 75 73 74 74 74 72 73 73 73 72 72 72 72 72 71 70 69 70 71 71 71 68 68 70 70 69 68 69 70 69 69 70 71 71 71 71 71 72 72 71 69 69 69 67 66 67 67 68 65 65 67 64 60
74 74 74 72 73 73 71 69 67 67 65 63 63 64 64 64 65 66 66 67 68 68 70 71 71 73 73 73 74 76 75 76 76 75 73 72 72 71 71 72 71 71 70 68 69 70 69 70 69 70 70 69 67 68 70 70 68 65 66 68 68 68 69 69 70 71 71 71 71 69 71 67 68 70 70 70 67 64 64 65 66 67 67 65 63
74 74 73 73 75 75 73 69 69 67 68 67 64 65 65 64 64 64 65 65 66 66 65 69 70 70 72 71 70 73 74 73 75 75 73 72 72 72 70 69 69 69 69 67 66 66 66 66 69 69 69 69 67 66 67 67 64 66 68 69 67 67 65 65 65 67 68 67 66 67 66 66 67 65 65 68 70 71 69 67 68 68 68 69 69
74 75 74 74 75 74 74 74 73 72 71 72 70 68 66 66 67 67 67 67 65 64 64 64 67 69 69 69 70 71 72 72 74 75 74 72 71 71 71 70 68 67 67 68 67 65 65 64 62 64 66 69 69 68 68 68 68 67 67 67 69 69 69 66 66 67 67 65 63 62 64 66 67 67 66 67 67 67 66 64 64 67 69 71 71
74 74 75 74 75 75 74 74 74 74 74 75 74 72 70 70 71 71 71 68 64 64 65 64 65 66 68 69 70 69 67 69 70 72 72 72 71 70 70 70 69 68 68 66 66 67 66 65 63 63 67 68 71 74 74 76 71 70 72 72 73 71 71 70 68 69 69 68 67 67 64 64 65 65 61 62 63 64 67 67 68 69 68 68 70
74 73 74 74 75 75 74 74 74 74 74 74 74 74 73 73 71 72 71 71 70 70 69 68 66 66 67 69 70 68 67 66 73 76 75 72 71 68 69 71 71 70 70 70 67 66 65 64 62 65 70 72 75 77 76 75 75 72 72 73 73 73 72 72 71 69 68 68 66 63 61 60 58 62 60 62 64 65 63 67 68 68 69 70 71
73 74 73 74 74 74 74 73 74 74 74 75 75 74 74 73 73 73 73 73 73 74 73 70 68 65 65 67 67 66 65 64 76 69 70 72 73 72 72 73 74 73 71 72 71 68 67 66 67 68 73 76 76 75 75 74 74 74 73 74 74 74 72 71 70 71 69 68 65 65 62 63 64 66 66 62 61 64 67 69 68 69 70 70 69
73 73 73 74 73 73 74 74 73 73 74 75 74 75 75 75 74 75 73 72 74 72 71 72 72 70 67 67 66 65 64 67 65 67 69 69 72 72 70 69 68 69 70 69 69 68 67 66 64 62 64 67 69 76 78 76 73 73 73 73 73 73 73 74 73 71 72 70 68 68 68 68 68 69 65 64 68 70 72 72 72 71 70 70 70
73 72 72 72 72 73 73 73 73 73 74 74 74 74 74 74 74 74 74 74 73 73 73 71 72 72 71 71 69 67 67 64 64 66 65 66 66 71 69 68 67 66 67 69 69 70 71 69 68 64 62 70 71 71 75 76 77 74 74 74 73 72 69 69 71 74 71 72 71 70 69 70 71 71 72 73 75 74 73 71 71 70 71 70 70
71 71 71 71 72 73 73 73 73 73 73 73 73 73 73 73 74 74 74 75 74 73 72 73 73 74 73 73 73 71 72 64 62 64 64 64 65 67 70 68 68 67 68 68 67 68 71 72 71 69 69 71 74 74 75 76 76 76 77 77 76 76 73 68 68 68 72 71 72 72 73 75 73 74 76 76 75 73 73 71 73 72 72 72 74
69 69 69 70 71 72 72 72 73 73 72 73 73 73 73 73 73 74 74 74 74 73 74 73 73 73 73 72 72 70 66 61 61 61 61 62 63 66 70 69 68 68 69 69 72 70 71 71 72 71 73 74 73 75 75 74 75 74 74 73 72 72 72 71 72 74 74 72 72 72 73 74 74 75 76 76 75 75 74 74 74 74 74 75 74
66 68 69 69 69 69 70 71 71 71 71 71 72 72 72 72 72 73 74 74 73 74 73 72 73 73 73 73 72 71 65 58 59 59 60 60 63 70 72 73 73 71 70 72 72 74 73 74 74 74 74 75 75 74 75 74 73 72 73 73 72 71 69 72 69 71 75 75 76 74 74 78 69 75 75 72 71 72 71 70 70 71 70 71 70
65 66 67 67 68 68 69 69 69 70 70 70 70 70 71 71 72 73 72 73 73 74 72 72 73 73 73 74 73 71 67 60 57 56 57 58 64 73 74 73 73 71 71 72 73 73 73 74 75 73 73 76 67 63 67 72 73 73 73 72 70 69 68 67 70 65 66 65 63 63 62 62 62 61 60 60 68 68 69 68 68 67 68 68 68
63 65 64 65 66 66 67 68 68 69 69 70 70 70 71 72 72 71 71 71 72 71 71 71 72 72 72 72 71 69 67 62 56 55 55 56 66 74 74 74 73 72 72 73 73 73 73 74 72 73 74 72 61 61 62 71 73 73 73 72 71 70 71 70 74 77 63 62 62 62 61 61 61 60 61 60 60 64 69 68 68 67 68 68 67
63 64 64 64 65 65 66 67 68 68 69 69 70 70 70 70 70 70 70 69 69 70 71 71 70 69 68 67 68 68 68 64 56 55 54 54 64 73 74 74 73 72 72 73 73 73 74 75 74 71 69 64 57 58 60 68 73 73 73 72 71 71 72 75 74 74 74 75 76 79 76 70 73 74 74 66 63 66 69 69 69 69 68 68 69
62 62 63 64 64 65 66 68 69 69 69 69 69 69 69 69 69 69 68 67 67 70 70 70 69 68 68 68 67 67 67 65 62 54 53 53 55 69 72 72 72 72 71 72 72 72 74 73 70 61 58 57 56 55 56 58 68 73 74 72 72 73 72 74 74 73 74 74 74 74 75 75 74 75 74 74 74 74 72 72 72 72 72 72 70
61 60 60 61 62 63 63 65 65 66 67 68 67 67 67 67 67 67 65 65 64 65 64 65 65 65 67 68 68 68 67 66 63 54 53 53 53 60 70 70 70 70 71 71 71 71 72 73 71 62 58 56 55 53 53 55 59 69 72 73 71 68 67 73 74 73 74 75 74 74 73 73 74 73 73 73 72 74 76 74 74 74 73 72 72
61 62 61 60 60 61 62 62 62 61 63 64 65 65 66 66 66 65 64 65 66 65 63 62 60 60 63 64 65 66 65 64 66 57 53 52 52 54 66 67 66 69 69 69 69 69 69 69 71 65 56 54 52 51 50 53 56 67 71 60 57 59 68 70 72 72 72 72 72 71 70 71 70 71 70 71 72 73 73 74 77 78 77 76 76
60 61 62 61 62 62 64 63 62 61 62 62 62 62 63 64 65 66 65 65 65 64 63 62 60 59 60 61 64 65 66 66 63 64 55 52 51 53 54 61 59 71 65 66 66 66 67 67 68 66 55 50 48 49 51 52 55 67 55 55 55 56 64 69 70 71 71 71 71 71 70 70 71 71 71 73 75 75 74 75 76 76 75 74 75
60 60 60 60 60 60 60 61 63 64 64 63 63 63 62 62 63 63 63 63 61 62 61 61 59 59 59 59 62 64 65 64 63 62 60 55 53 52 54 54 55 65 66 63 63 63 66 67 67 54 49 49 51 53 55 61 62 55 56 56 57 61 69 71 70 70 71 70 70 70 70 70 71 70 73 75 74 75 75 75 75 75 74 74 75
58 58 58 58 59 59 61 61 61 61 61 61 61 61 62 61 61 63 63 61 61 60 60 59 59 59 59 60 60 62 63 62 62 63 61 58 56 55 56 56 57 56 68 65 65 65 62 55 52 53 57 56 60 61 59 61 57 56 57 59 68 70 71 69 69 70 70 69 69 69 69 70 71 72 73 73 74 74 75 74 72 74 74 75 74
55 55 55 57 57 58 57 56 58 59 59 58 59 58 59 58 59 60 60 60 61 60 58 58 57 59 58 58 60 60 62 61 62 63 64 63 60 56 57 60 63 64 65 63 65 60 57 58 59 58 59 60 65 65 63 62 60 61 61 66 65 65 66 66 67 67 67 66 65 66 67 67 68 70 71 72 73 74 74 73 72 71 72 72 72
56 56 55 53 56 58 57 55 55 56 57 55 54 56 56 57 59 58 58 57 58 56 56 57 56 55 57 59 59 60 60 61 60 62 63 61 61 63 67 65 65 65 63 61 62 63 65 61 59 58 58 59 61 63 60 60 62 60 58 57 58 60 63 63 65 66 65 64 62 63 64 65 66 66 66 67 69 70 71 70 70 70 70 70 71
55 54 53 53 54 54 55 55 57 54 55 55 53 53 54 55 57 58 57 57 58 55 55 55 54 55 55 57 59 58 58 58 59 60 59 59 59 59 59 58 59 59 56 56 59 60 57 62 60 65 57 58 59 55 54 58 57 56 56 55 55 59 60 59 61 64 64 63 62 63 63 65 62 61 62 63 64 66 69 67 68 68 68 70 70
56 54 53 55 54 57 54 54 54 55 55 58 56 61 59 54 55 56 58 60 60 58 57 56 55 55 56 58 58 57 57 57 58 49 56 47 54 58 58 57 58 58 58 51 61 63 60 56 55 54 52 50 50 49 48 49 52 53 53 54 53 54 55 55 59 59 60 59 60 61 60 60 61 61 62 61 64 63 66 66 67 67 68 68 68
57 55 56 56 56 55 55 54 56 56 54 53 56 58 56 50 54 60 56 57 49 45 49 57 57 60 57 57 59 58 57 57 46 42 41 41 41 42 43 41 42 51 51 49 56 60 57 54 53 51 49 49 49 49 47 48 51 50 51 53 52 52 52 54 55 54 57 58 58 58 59 58 59 60 60 59 61 61 62 61 65 66 65 63 62
55 55 55 56 56 56 55 56 57 58 57 56 57 57 55 59 45 44 52 52 46 41 40 41 45 48 59 58 58 50 49 46 42 41 41 40 40 40 40 40 41 42 44 56 59 55 53 52 52 52 51 49 50 48 50 49 50 50 49 50 51 52 52 53 54 53 55 55 57 57 56 57 57 58 57 57 59 60 60 61 61 62 62 61 61
55 54 53 54 55 57 55 56 56 55 55 54 56 55 54 57 58 49 44 47 45 42 41 41 41 44 44 50 58 59 51 44 41 41 41 41 40 40 40 41 41 41 43 45 59 56 53 52 52 52 50 49 50 51 50 49 50 51 50 49 50 52 52 54 55 56 56 54 55 54 55 55 56 56 56 57 57 57 57 58 58 58 59 59 60
55 54 55 55 53 54 53 55 55 54 53 53 53 54 53 51 52 56 57 45 43 43 43 42 41 43 43 42 41 42 43 42 42 42 41 40 39 39 40 39 41 42 46 57 57 55 54 54 53 54 53 52 52 53 52 53 52 52 50 51 51 51 54 57 56 56 55 54 54 54 54 54 54 55 55 56 56 56 56 56 57 57 57 57 59
52 53 53 54 54 53 52 53 53 53 53 53 53 52 52 53 51 51 56 56 56 52 43 42 43 44 42 42 42 43 43 42 42 42 41 41 40 40 40 54 47 42 46 58 54 53 52 52 52 53 53 53 52 52 53 52 52 52 51 51 51 52 54 56 54 53 53 53 53 53 54 53 53 54 54 54 54 55 56 55 55 56 56 56 56
52 52 53 53 51 51 51 51 52 53 53 53 52 51 51 52 53 51 50 50 53 55 54 57 48 48 56 47 44 43 46 44 43 42 42 41 41 40 40 58 59 55 57 56 52 50 50 50 51 51 51 51 51 51 51 52 51 51 51 52 51 51 51 52 51 52 52 52 52 53 53 53 53 53 54 53 53 53 53 54 54 54 54 55 54
51 51 50 50 50 50 51 53 53 53 53 53 53 51 50 51 49 50 49 50 50 50 50 52 55 49 47 48 44 45 45 44 45 43 42 41 41 40 56 53 50 50 50 51 50 49 50 49 49 49 50 50 51 50 51 50 51 50 50 50 50 50 50 50 51 52 52 52 52 53 52 53 52 52 52 52 53 52 51 52 52 52 53 53 54
50 50 49 50 50 50 49 51 52 53 52 52 51 51 51 50 49 48 50 49 50 50 50 52 53 56 53 57 52 43 43 46 46 45 42 41 38 53 52 51 50 51 52 50 49 49 50 49 50 49 49 49 49 49 49 49 50 51 51 51 51 50 50 49 49 50 51 50 50 51 52 52 51 52 51 51 50 51 51 51 51 51 51 51 51
51 50 50 51 51 51 50 49 49 49 51 49 51 51 50 50 51 50 49 48 49 50 50 50 51 49 50 52 55 53 58 46 46 45 44 42 50 54 53 52 51 51 50 50 50 51 50 50 49 50 51 49 49 49 49 48 48 48 49 50 50 50 50 48 50 51 51 49 49 51 49 49 49 49 49 50 50 50 50 50 50 50 50 50 50
51 49 48 46 46 50 48 48 47 47 47 47 47 48 47 47 46 47 46 47 48 48 49 48 49 49 48 50 51 52 53 49 48 48 49 50 51 49 49 50 50 50 50 51 51 51 50 50 49 50 49 49 49 49 48 47 47 47 49 47 47 47 48 47 49 49 48 47 47 48 49 48 49 49 49 48 48 48 49 49 50 49 49 49 49
50 48 46 46 47 45 46 48 47 47 47 47 46 47 47 47 48 47 47 46 47 48 48 48 48 49 49 50 50 50 49 47 47 46 46 47 48 49 49 49 49 49 51 51 50 50 49 48 48 48 49 49 48 48 48 48 47 46 47 46 46 46 46 47 46 46 46 46 46 46 47 48 48 48 48 48 47 47 47 47 47 47 48 48 48
48 48 49 45 46 47 46 45 46 46 46 46 45 45 45 46 47 47 46 45 45 46 47 46 47 48 50 50 43 45 49 46 47 47 47 47 48 48 48 49 49 50 49 49 49 49 48 48 49 48 47 47 47 47 47 46 46 46 45 45 46 44 45 45 46 45 46 46 46 46 46 48 46 46 46 47 46 45 45 46 46 46 47 48 47
47 47 47 47 46 45 45 46 45 47 46 45 45 44 47 45 46 45 44 44 44 45 44 45 46 47 48 43 42 40 45 46 46 45 46 46 47 48 49 48 49 50 49 49 49 49 48 49 48 47 47 47 47 46 45 46 44 45 43 44 44 43 44 43 44 45 46 46 46 46 47 46 46 45 45 44 44 45 45 45 46 45 45 45 46
49 47 47 46 45 45 44 44 45 45 44 44 44 44 44 45 45 46 45 45 45 44 43 44 44 46 49 47 48 46 47 45 45 45 46 46 46 46 47 47 47 47 48 48 47 47 47 47 46 46 46 45 46 45 44 43 44 43 43 42 43 42 42 43 43 43 44 44 44 45 45 45 45 44 44 44 44 44 45 45 44 44 45 45 46
46 46 45 45 44 44 45 44 43 43 43 43 44 44 45 46 46 46 44 44 43 44 42 42 43 45 46 47 47 46 44 44 45 44 46 45 45 45 45 45 46 47 46 46 46 46 45 45 45 44 45 44 45 45 44 43 43 43 43 43 43 43 43 43 43 43 43 42 43 43 43 44 44 43 44 43 43 43 43 43 43 43 43 44 43
44 45 44 42 44 43 43 45 43 44 43 44 44 43 44 43 43 43 43 42 43 43 42 42 42 43 43 43 43 43 43 43 44 44 44 45 45 45 44 44 44 45 44 44 44 45 44 44 44 44 44 43 43 44 43 43 43 43 42 43 43 42 42 42 42 42 42 42 41 40 40 40 40 39 40 40 41 41 41 42 42 43 42 42 42
41 41 41 41 42 42 43 42 45 44 43 42 42 42 42 41 42 42 41 41 41 41 41 41 41 42 42 42 42 43 43 44 44 43 44 44 44 43 43 42 43 43 43 42 42 43 43 43 43 42 42 43 42 41 42 42 42 42 42 42 41 41 41 41 41 40 40 39 38 37 37 38 39 39 41 39 39 39 40 42 42 41 41 41 42
43 41 40 42 41 42 43 44 43 42 42 41 41 41 40 40 40 40 41 40 40 41 41 41 41 41 42 42 41 42 42 42 42 43 43 43 43 42 41 42 42 42 41 41 42 41 42 42 41 41 41 41 41 42 41 40 41 40 41 40 40 40 38 37 37 38 37 37 36 35 36 37 36 37 37 38 38 39 41 40 40 41 41 41 41
41 40 41 41 41 41 41 41 39 40 39 39 39 39 38 37 39 38 39 40 40 39 39 39 39 39 39 39 40 40 40 40 40 41 40 40 40 40 41 42 42 41 41 41 41 41 40 40 40 40 41 41 41 40 41 41 41 40 40 40 41 37 38 38 37 36 36 36 36 36 36 35 35 36 37 37 38 37 38 38 39 39 39 40 40
40 39 40 41 40 39 39 38 39 38 38 38 37 36 36 38 38 38 39 37 36 36 36 37 38 37 38 38 37 37 37 38 38 38 38 38 39 40 40 41 41 40 40 39 38 38 39 39 40 40 40 40 40 40 40 40 40 40 39 38 39 38 36 37 37 36 36 37 37 36 36 36 36 36 37 38 38 39 38 40 40 40 39 40 40
40 40 40 40 39 38 39 38 37 36 37 36 36 37 37 38 36 35 36 37 35 37 36 36 36 36 35 36 35 35 37 36 36 37 37 37 37 38 38 39 40 39 38 37 37 37 37 38 39 39 40 40 40 40 39 39 39 38 38 37 36 35 34 36 37 38 36 36 36 36 37 38 38 38 38 38 39 39 39 40 40 40 40 39 40
40 39 38 38 37 37 37 38 36 36 36 36 36 36 35 35 35 35 35 35 34 34 34 35 36 35 35 34 35 35 35 36 36 36 37 37 37 37 38 38 37 38 37 37 37 36 37 37 37 37 38 38 38 37 37 37 37 38 37 37 34 33 35 37 36 35 36 36 36 37 37 38 38 38 38 38 38 39 40 40 40 40 40 40 40